"Time","Temp","Dewpoint","Humidity","Pressure","Direction","Speed","Gust","Precip","PrecipRate"
"00:04:59","29.6","24.5","81.2","30.33","317","0.3","3","0.00","0.00"
"00:09:58","29.5","24.4","81","30.33","314","0.3","3.5","0.00","0.00"
"00:14:59","29.5","24.4","81","30.34","330","0.9","4","0.00","0.00"
"00:19:57","29.5","24.6","81.8","30.34","341","0.3","3.5","0.00","0.00"
"00:24:56","29.4","24.6","82","30.34","341","0.3","1.2","0.00","0.00"
"00:29:58","29.4","24.6","82","30.35","341","0","0","0.00","0.00"
"00:34:57","29.4","24.6","82","30.35","341","0","0","0.00","0.00"
"00:39:57","29.4","24.8","82.8","30.35","341","0","0","0.00","0.00"
"00:44:56","29.3","24.8","83","30.35","341","0","0","0.00","0.00"
"00:49:58","29.3","24.8","83","30.35","341","0","0","0.00","0.00"
"00:54:56","29.3","25","83.8","30.35","341","0","0","0.00","0.00"
"00:59:59","29.2","24.9","83.7","30.35","341","0","0","0.00","0.00"
"01:04:58","29.2","25","84","30.34","341","0","0","0.00","0.00"
"01:09:57","29.2","25","84","30.34","337","0.2","2.3","0.00","0.00"
"01:14:56","29.2","25.1","84.5","30.34","337","0.1","1.2","0.00","0.00"
"01:19:57","29.1","25.2","85","30.34","337","0","2","0.00","0.00"
"01:24:57","29.1","25","84.4","30.34","338","0.3","2.3","0.00","0.00"
"01:29:59","29.1","24.9","84","30.34","337","0.6","2.3","0.00","0.00"
"01:34:56","29.1","25","84.2","30.34","336","0.1","2.3","0.00","0.00"
"01:39:55","29.1","24.9","84","30.34","336","0","1","0.00","0.00"
"01:44:59","29.1","25","84.5","30.34","336","0","0","0.00","0.00"
"01:49:57","29.1","25.2","84.9","30.33","334","0.3","3","0.00","0.00"
"01:54:59","29.1","25.1","84.7","30.33","332","0.1","3.5","0.00","0.00"
"01:59:57","29.1","24.9","84","30.33","351","0.4","2.3","0.00","0.00"
"02:04:56","29.1","24.9","84","30.31","339","0.6","3.5","0.00","0.00"
"02:09:56","29.1","24.9","84","30.31","340","0.3","2.3","0.00","0.00"
"02:14:58","29.1","24.8","83.6","30.32","340","0.2","2.3","0.00","0.00"
"02:19:56","29.1","24.6","83","30.32","81","0.3","2.3","0.00","0.00"
"02:24:59","29.1","24.6","83","30.32","6","0.3","3","0.00","0.00"
"02:29:59","29.1","24.6","83","30.32","325","0","1.2","0.00","0.00"
"02:34:57","29.1","24.6","83","30.31","325","0.3","3","0.00","0.00"
"02:39:58","29.2","24.7","83","30.31","325","0.1","2","0.00","0.00"
"02:44:56","29.2","24.6","82.9","30.31","322","0.5","3","0.00","0.00"
"02:49:58","29.2","24.4","82","30.31","323","0.3","2.3","0.00","0.00"
"02:54:56","29.2","24.4","82","30.31","322","0.3","2.3","0.00","0.00"
"02:59:57","29.2","24.3","81.9","30.31","321","0.6","3.5","0.00","0.00"
"03:04:55","29.2","24.1","80.9","30.30","20","0.7","3.5","0.00","0.00"
"03:09:58","29.1","23.6","79.6","30.30","4","1.1","4","0.00","0.00"
"03:14:56","29.1","23.2","78.3","30.30","68","1.3","5","0.00","0.00"
"03:19:56","29.1","22.3","75.3","30.29","49","2","6","0.00","0.00"
"03:24:56","29","20.8","71","30.29","65","1.5","6","0.00","0.00"
"03:29:57","29","20.1","69.2","30.29","74","1.8","5","0.00","0.00"
"03:34:58","28.9","19.9","68.5","30.29","59","2","4","0.00","0.00"
"03:39:57","28.9","19.8","68.4","30.29","357","1.9","5","0.00","0.00"
"03:44:59","28.8","19.4","67.5","30.30","56","1.8","6","0.00","0.00"
"03:49:56","28.7","19.1","67","30.30","62","1.8","4","0.00","0.00"
"03:54:58","28.7","19.4","67.7","30.30","45","1.3","3.5","0.00","0.00"
"03:59:59","28.6","19.5","68.2","30.31","52","1","4","0.00","0.00"
"04:04:58","28.6","19.7","69","30.31","69","0.4","4","0.00","0.00"
"04:09:57","28.5","19.7","69.2","30.31","101","1.1","4","0.00","0.00"
"04:14:58","28.5","19.3","68","30.31","11","1.7","4","0.00","0.00"
"04:19:57","28.5","19.4","68.3","30.31","34","1.1","4","0.00","0.00"
"04:24:56","28.4","19.2","68","30.31","22","1.5","6","0.00","0.00"
"04:29:58","28.4","19.3","68.5","30.31","36","1.6","5.8","0.00","0.00"
"04:34:56","28.4","19.5","69","30.31","5","1.1","3.5","0.00","0.00"
"04:39:56","28.3","19.7","69.7","30.31","5","1.2","4","0.00","0.00"
"04:44:58","28.3","19.4","69.1","30.31","47","1.5","3.5","0.00","0.00"
"04:49:59","28.3","19.8","70","30.31","25","1.3","3.5","0.00","0.00"
"04:54:58","28.3","20.1","71","30.31","50","1","3.5","0.00","0.00"
"04:59:59","28.3","19.8","70.1","30.31","27","1.5","6","0.00","0.00"
"05:04:58","28.2","19.6","69.6","30.31","78","1.4","4","0.00","0.00"
"05:09:56","28.2","19.6","69.6","30.31","66","1.6","4","0.00","0.00"
"05:14:59","28.2","19.8","70.5","30.32","77","0.4","2.3","0.00","0.00"
"05:19:58","28.2","20.1","71.3","30.32","5","1.6","5","0.00","0.00"
"05:24:58","28.1","20","71.2","30.32","339","1.6","5","0.00","0.00"
"05:29:59","28.1","19.7","70.4","30.32","7","2","7","0.00","0.00"
"05:34:56","28","19.4","69.8","30.32","346","1.4","5","0.00","0.00"
"05:39:58","27.9","19.4","70","30.32","310","1.3","6","0.00","0.00"
"05:44:58","27.9","18.9","68.8","30.32","9","1.5","5","0.00","0.00"
"05:49:57","27.8","19","69.2","30.32","356","1.9","6","0.00","0.00"
"05:54:56","27.8","18.9","69","30.32","31","1.3","4","0.00","0.00"
"05:59:59","27.7","18.9","69.3","30.33","333","0.6","4","0.00","0.00"
"06:04:58","27.7","18.9","69.2","30.33","5","0.8","6","0.00","0.00"
"06:09:58","27.6","18.9","69.3","30.33","357","1.1","4","0.00","0.00"
"06:14:59","27.6","18.9","69.4","30.33","36","0.7","3","0.00","0.00"
"06:19:55","27.6","18.9","69.3","30.33","356","1.7","5","0.00","0.00"
"06:24:57","27.6","18.8","69.1","30.33","34","1.8","5","0.00","0.00"
"06:29:58","27.5","18.9","69.4","30.34","2","1.6","4","0.00","0.00"
"06:34:58","27.5","19","69.9","30.34","338","0.5","3.5","0.00","0.00"
"06:39:57","27.5","19","70","30.34","338","0.3","2.3","0.00","0.00"
"06:44:58","27.5","19","70","30.34","354","0.3","2","0.00","0.00"
"06:49:57","27.5","18.9","69.7","30.34","12","0.5","3","0.00","0.00"
"06:54:59","27.4","18.9","69.7","30.34","354","1","4","0.00","0.00"
"06:59:57","27.4","18.7","69.4","30.34","14","0.9","3.5","0.00","0.00"
"07:04:56","27.4","19","70.3","30.34","352","1.2","5","0.00","0.00"
"07:09:59","27.4","19.1","70.7","30.34","352","0.8","6","0.00","0.00"
"07:14:56","27.4","18.9","70.2","30.34","328","0.9","3.5","0.00","0.00"
"07:19:56","27.4","19","70.5","30.34","333","0.9","4","0.00","0.00"
"07:24:58","27.4","19.2","71","30.34","357","0.9","3","0.00","0.00"
"07:29:59","27.3","18.9","70.1","30.34","348","0.9","5","0.00","0.00"
"07:34:57","27.3","18.8","69.9","30.34","1","0.5","3.5","0.00","0.00"
"07:39:56","27.3","18.6","69.3","30.34","8","0.7","3.5","0.00","0.00"
"07:44:57","27.3","18.5","69.1","30.34","74","0.7","3.5","0.00","0.00"
"07:49:58","27.3","18.6","69.4","30.34","94","0.5","2.3","0.00","0.00"
"07:54:59","27.3","18.6","69.3","30.34","68","0.8","3.5","0.00","0.00"
"07:59:58","27.4","18.6","69","30.35","47","0.4","2.3","0.00","0.00"
"08:04:57","27.4","18.4","68.7","30.35","14","0.5","4","0.00","0.00"
"08:09:59","27.4","18.5","68.8","30.35","344","0.4","3.5","0.00","0.00"
"08:14:57","27.4","18.5","68.8","30.36","341","0.4","2.3","0.00","0.00"
"08:19:58","27.4","18.5","68.8","30.36","316","0.6","3.5","0.00","0.00"
"08:24:59","27.4","18.1","67.7","30.36","336","1.1","4","0.00","0.00"
"08:29:56","27.5","18.4","68.2","30.36","340","0.9","3.5","0.00","0.00"
"08:34:56","27.5","18.3","67.8","30.36","8","1","3.5","0.00","0.00"
"08:39:59","27.5","18.4","68.1","30.36","26","0.4","3.5","0.00","0.00"
"08:44:56","27.6","18.4","67.9","30.37","54","0.9","3.5","0.00","0.00"
"08:49:58","27.6","18.6","68.4","30.37","37","0.7","3","0.00","0.00"
"08:54:59","27.7","18.7","68.7","30.37","32","0.8","3","0.00","0.00"
"08:59:57","27.8","18.7","68.4","30.37","41","0.7","3.5","0.00","0.00"
"09:04:56","27.9","18.8","68.5","30.37","14","0.5","2.3","0.00","0.00"
"09:09:55","28","18.7","67.9","30.37","8","0.7","2.3","0.00","0.00"
"09:14:58","28","18.8","67.9","30.37","30","0.9","3.5","0.00","0.00"
"09:19:55","28.1","19","68.4","30.37","6","0.7","3.5","0.00","0.00"
"09:24:57","28.2","19","68.1","30.37","355","0.8","4","0.00","0.00"
"09:29:58","28.2","18.7","67.3","30.37","41","1.1","5","0.00","0.00"
"09:34:56","28.3","19.1","68.1","30.37","25","0.9","3.5","0.00","0.00"
"09:39:58","28.3","19.3","68.6","30.37","71","0.9","4","0.00","0.00"
"09:44:59","28.4","19.4","68.5","30.37","72","1.6","4","0.00","0.00"
"09:49:56","28.4","18.8","66.8","30.37","80","2.3","4","0.00","0.00"
"09:54:58","28.5","18.7","66.4","30.37","85","1.4","4","0.00","0.00"
"09:59:58","28.5","18.7","66.2","30.37","26","0.9","3","0.00","0.00"
"10:04:57","28.6","18.7","66.2","30.36","41","0.6","2.3","0.00","0.00"
"10:09:59","28.7","19","66.4","30.36","61","0.7","3","0.00","0.00"
"10:14:57","28.8","18.9","66","30.36","78","1.1","3.5","0.00","0.00"
"10:19:59","28.9","19","66","30.36","54","0.3","4","0.00","0.00"
"10:24:56","29","19.8","68.1","30.36","97","2.5","5","0.00","0.00"
"10:29:57","28.8","19.9","69","30.37","96","2.3","4.6","0.00","0.00"
"10:34:59","28.6","19.8","69.2","30.37","103","1.5","3.5","0.00","0.00"
"10:39:57","28.5","19.5","68.7","30.37","108","1.2","4","0.00","0.00"
"10:44:58","28.6","19.9","69.3","30.37","65","1.3","4","0.00","0.00"
"10:49:59","28.7","19.7","68.7","30.37","114","1.8","4","0.00","0.00"
"10:54:56","28.8","20.1","69.5","30.37","100","0.8","4","0.00","0.00"
"10:59:57","29","20.1","68.9","30.37","53","1.1","3.5","0.00","0.00"
"11:04:55","29.1","20.3","69.5","30.37","38","1.9","5","0.00","0.00"
"11:09:58","29.2","20.4","69.5","30.37","49","1.3","4","0.00","0.00"
"11:14:59","29.3","21.1","71.1","30.37","62","2.4","5","0.00","0.00"
"11:19:56","29.3","21.3","71.8","30.37","11","1","4","0.00","0.00"
"11:24:57","29.2","20.9","70.8","30.37","119","1.3","4","0.00","0.00"
"11:29:57","29.2","21.2","71.8","30.37","90","1.5","4","0.00","0.00"
"11:34:59","29.2","21.3","72","30.37","32","1.1","3.5","0.00","0.00"
"11:39:56","29.5","21.6","72.2","30.37","10","0.6","3.5","0.00","0.00"
"11:44:58","29.7","21.2","70.5","30.37","10","0.7","4","0.00","0.00"
"11:49:59","29.7","21.7","71.8","30.36","82","1.9","4","0.00","0.00"
"11:54:56","29.8","21.5","71.1","30.36","71","1","3.5","0.00","0.00"
"11:59:55","29.8","21.5","71.2","30.37","71","1.6","4","0.00","0.00"
"12:04:59","29.7","21.6","71.5","30.37","54","1.9","4","0.00","0.00"
"12:09:57","29.5","21.5","71.6","30.37","324","0.7","2.3","0.00","0.00"
"12:14:59","29.5","21.7","72.1","30.37","326","0.5","2.3","0.00","0.00"
"12:19:56","29.7","21.8","72.2","30.36","327","0.4","2.3","0.00","0.00"
"12:24:58","29.6","21.2","70.5","30.36","320","0.8","3.5","0.00","0.00"
"12:29:59","29.6","21.5","71.4","30.36","315","0.2","1.2","0.00","0.00"
"12:34:58","29.8","22","72.3","30.35","323","1","3","0.00","0.00"
"12:39:57","30.1","22.1","71.9","30.35","339","1.1","4","0.00","0.00"
"12:44:59","30.3","22.2","71.5","30.35","336","1.3","3.5","0.00","0.00"
"12:49:55","30.3","21.9","70.7","30.34","336","0.3","3","0.00","0.00"
"12:54:59","30.4","22.3","71.7","30.34","335","0.6","3.5","0.00","0.00"
"12:59:56","30.5","22","70.3","30.34","331","0.7","2.3","0.00","0.00"
"13:04:59","30.4","21.9","70.2","30.33","321","0.9","2.3","0.00","0.00"
"13:09:57","30.4","21.8","70.2","30.33","323","1.1","3.5","0.01","0.01"
"13:14:59","30.3","21.9","70.6","30.33","226","0.6","3.5","0.01","0.01"
"13:19:59","30.4","22.1","71.1","30.33","220","0.4","1.2","0.01","0.01"
"13:24:56","30.5","22.2","70.8","30.33","329","2.1","4","0.01","0.01"
"13:29:56","30.5","22.1","70.9","30.33","329","0.9","3.5","0.01","0.01"
"13:34:57","30.3","21.7","70","30.32","328","0.6","2.3","0.01","0.01"
"13:39:59","30.3","22.2","71.4","30.32","305","1.1","4","0.01","0.01"
"13:44:59","30.5","22.5","72.2","30.32","334","1.8","4","0.01","0.01"
"13:49:56","30.6","22.6","71.9","30.32","344","1.2","3.5","0.01","0.01"
"13:54:57","30.8","22.5","71","30.32","342","0.1","2","0.01","0.01"
"13:59:58","30.8","22.6","71.2","30.32","324","0.9","3.5","0.01","0.01"
"14:04:57","30.9","22.7","71.5","30.31","333","1.6","5","0.01","0.01"
"14:09:59","31","22.9","71.6","30.31","341","1","3.5","0.01","0.01"
"14:14:56","31.2","22.6","70.3","30.31","343","0.5","2.3","0.01","0.00"
"14:19:56","31.3","22.7","70.4","30.31","343","0.5","2.3","0.01","0.00"
"14:24:56","31.4","22.8","70.3","30.31","342","0.6","5","0.01","0.00"
"14:29:56","31.4","22.7","70.2","30.31","350","2.3","6","0.01","0.00"
"14:34:57","31.2","22.6","70.3","30.31","348","1","4","0.01","0.00"
"14:39:59","31.3","23.1","71.4","30.31","60","1.4","5","0.01","0.00"
"14:44:59","31.4","23.4","72.1","30.31","36","0.7","5","0.01","0.00"
"14:49:56","31.5","23.7","72.8","30.31","334","3.3","6","0.01","0.00"
"14:54:57","31.4","23.6","72.6","30.31","345","2.3","4.6","0.01","0.00"
"14:59:57","31.3","23.3","71.9","30.31","335","1.5","5","0.01","0.00"
"15:04:59","31.2","23.3","72.3","30.30","321","2.4","5","0.01","0.00"
"15:09:58","31","23.4","73","30.30","326","1.6","4","0.01","0.00"
"15:14:58","31","23.5","73.3","30.31","20","0.6","3","0.01","0.00"
"15:19:57","31.1","23.2","72.1","30.31","3","0.5","4","0.01","0.00"
"15:24:58","31.1","22.8","70.8","30.31","5","0.7","2.3","0.01","0.00"
"15:29:58","31.2","22.9","71.2","30.31","4","0.6","2.3","0.01","0.00"
"15:34:59","31.2","22.6","70.1","30.31","345","0.4","2.3","0.01","0.00"
"15:39:56","31.2","22.9","71.3","30.31","26","1.1","3.5","0.01","0.00"
"15:44:56","31.2","23.2","71.9","30.31","0","1","3.5","0.01","0.00"
"15:49:57","31.3","23.1","71.5","30.31","351","1.2","3.5","0.01","0.00"
"15:54:57","31.4","23.5","72.3","30.31","8","0.7","3","0.01","0.00"
"15:59:58","31.4","23.3","71.6","30.31","21","1.3","4","0.01","0.00"
"16:04:56","31.4","23.5","72.3","30.30","342","1.6","5","0.01","0.00"
"16:09:59","31.4","23.4","72.1","30.30","333","1.6","4","0.01","0.00"
"16:14:59","31.3","23.5","72.6","30.31","17","0.9","4","0.01","0.00"
"16:19:58","31.3","23.3","71.9","30.31","38","0.7","2.3","0.01","0.00"
"16:24:58","31.3","23","71","30.31","36","0.6","2.3","0.01","0.00"
"16:29:59","31.2","22.9","71","30.31","350","1.7","4","0.01","0.00"
"16:34:55","31","23","71.7","30.31","9","0.4","3","0.01","0.00"
"16:39:57","31","23","72","30.31","5","1.3","3.5","0.01","0.00"
"16:44:56","30.9","22.9","72","30.31","4","1.2","3.5","0.01","0.00"
"16:49:59","30.8","23.1","72.5","30.30","322","1.4","4","0.01","0.00"
"16:54:56","30.8","22.9","72.4","30.30","331","2.3","4","0.01","0.00"
"16:59:56","30.7","23.1","72.8","30.30","3","1","5","0.01","0.00"
"17:04:58","30.7","23","72.7","30.30","21","0.5","2.3","0.01","0.00"
"17:09:57","30.7","23.1","73","30.30","350","1.1","6","0.01","0.00"
"17:14:56","30.6","22.9","72.7","30.31","332","1.4","3.5","0.01","0.00"
"17:19:56","30.6","23","73","30.31","29","0.4","2.3","0.01","0.00"
"17:24:59","30.5","22.9","73","30.31","349","0.6","3.5","0.01","0.00"
"17:29:59","30.4","22.8","73.1","30.31","8","0.5","4","0.01","0.00"
"17:34:59","30.3","22.9","73.6","30.30","13","0.5","3.5","0.01","0.00"
"17:39:59","30.2","22.9","73.8","30.30","9","0.8","4","0.01","0.00"
"17:44:58","30.1","22.6","73.1","30.31","326","1","4","0.01","0.00"
"17:49:58","30","22.7","74","30.31","2","0.8","3.5","0.01","0.00"
"17:54:58","30","22.7","74.2","30.31","1","0.4","2.3","0.01","0.00"
"17:59:58","29.9","22.7","74.3","30.31","360","0.1","2.3","0.01","0.00"
"18:04:57","29.9","22.9","74.9","30.31","360","0","1.2","0.01","0.00"
"18:09:59","29.9","22.9","75","30.31","326","0.6","4","0.01","0.00"
"18:14:56","29.9","22.9","75","30.31","325","0.1","1.2","0.01","0.00"
"18:19:56","29.8","23","75.3","30.31","325","0.1","1.2","0.01","0.00"
"18:24:57","29.8","23","75.4","30.31","325","0","0","0.01","0.00"
"18:29:56","29.8","22.9","75.2","30.31","337","0.8","2.3","0.01","0.00"
"18:34:57","29.8","23.1","75.7","30.31","339","0.2","2.3","0.01","0.00"
"18:39:58","29.9","23.2","75.9","30.31","339","0.1","2.3","0.01","0.00"
"18:44:58","29.9","23.3","76.2","30.32","338","0.9","4","0.01","0.00"
"18:49:56","29.8","23.3","76.2","30.32","341","1","4","0.01","0.00"
"18:54:59","29.8","23.2","76","30.32","338","1","4","0.01","0.00"
"18:59:59","29.8","23.2","76","30.32","348","0.7","3.5","0.01","0.00"
"19:04:57","29.7","23.3","76.8","30.32","348","0.2","2.3","0.01","0.00"
"19:09:56","29.7","23.3","76.8","30.32","348","0.8","3.5","0.01","0.00"
"19:14:57","29.7","23.3","76.7","30.32","337","0.3","2.3","0.01","0.00"
"19:19:56","29.7","23.3","76.9","30.31","355","0.4","3.5","0.01","0.00"
"19:24:56","29.7","23.4","77","30.31","355","0.6","2.3","0.01","0.00"
"19:29:56","29.7","23.4","77","30.31","355","0.5","3","0.01","0.00"
"19:34:55","29.7","23.4","77","30.31","351","0.7","3.5","0.01","0.00"
"19:39:56","29.7","23.4","77","30.31","336","1.1","3.5","0.01","0.00"
"19:44:56","29.7","23.4","77","30.31","338","0.5","3.5","0.01","0.00"
"19:49:59","29.7","23.4","77","30.31","338","0.7","3.5","0.01","0.00"
"19:54:58","29.7","23.5","77.2","30.31","338","0.4","2.3","0.01","0.00"
"19:59:57","29.7","23.6","77.6","30.32","338","1.1","4","0.01","0.00"
"20:04:59","29.7","23.5","77.3","30.32","336","0.8","4","0.01","0.00"
"20:09:57","29.7","23.5","77.4","30.32","336","0.4","4","0.01","0.00"
"20:14:58","29.7","23.4","77.1","30.32","333","0.8","3.5","0.01","0.00"
"20:19:57","29.7","23.4","77.1","30.32","329","0.5","2.3","0.01","0.00"
"20:24:57","29.6","23.4","77.2","30.32","329","0.5","3.5","0.01","0.00"
"20:29:57","29.6","23.5","77.8","30.32","329","0.1","1.2","0.01","0.00"
"20:34:58","29.6","23.6","78","30.32","329","0.2","1.2","0.01","0.00"
"20:39:58","29.6","23.6","78","30.32","329","0.1","1.2","0.01","0.00"
"20:44:59","29.6","23.6","78","30.33","329","0","1","0.01","0.00"
"20:49:57","29.6","23.6","78","30.33","329","0","1","0.01","0.00"
"20:54:58","29.6","23.6","78","30.33","329","0.1","1.2","0.01","0.00"
"20:59:58","29.7","23.7","78","30.33","331","0.1","2.3","0.01","0.00"
"21:04:57","29.7","23.7","78","30.32","332","0.1","2","0.01","0.00"
"21:09:56","29.7","23.9","78.8","30.32","331","0.7","2.3","0.01","0.00"
"21:14:57","29.7","23.9","78.8","30.32","332","0.1","1.2","0.01","0.00"
"21:19:56","29.7","23.9","78.8","30.32","334","0.7","4","0.01","0.00"
"21:24:58","29.7","23.9","78.8","30.32","344","1.2","3.5","0.01","0.00"
"21:29:57","29.7","24","79","30.33","343","0.8","3.5","0.01","0.00"
"21:34:56","29.7","24","79","30.33","344","0.8","3.5","0.01","0.00"
"21:39:56","29.6","24","79.2","30.33","344","0.5","2.3","0.01","0.00"
"21:44:57","29.6","23.9","79","30.33","344","0.2","2","0.01","0.00"
"21:49:56","29.6","23.9","79","30.33","354","0.3","2.3","0.01","0.00"
"21:54:59","29.6","23.9","79","30.33","338","1.3","4","0.01","0.00"
"21:59:58","29.6","23.9","79","30.33","336","1.3","4","0.01","0.00"
"22:04:59","29.6","23.9","79","30.33","324","1.5","4","0.01","0.00"
"22:09:58","29.6","24.2","80","30.33","319","0.2","2.3","0.01","0.00"
"22:14:59","29.6","24.2","80","30.34","319","0.2","2.3","0.01","0.00"
"22:19:57","29.6","24.2","80","30.34","325","0.9","4","0.01","0.00"
"22:24:57","29.6","24.2","80","30.34","327","0.2","2.3","0.01","0.00"
"22:29:58","29.6","24.2","80","30.34","320","0.4","2.3","0.01","0.00"
"22:34:58","29.5","24.1","80","30.33","319","0.3","2.3","0.01","0.00"
"22:39:57","29.5","24.1","80","30.33","321","0.5","3.5","0.01","0.00"
"22:44:57","29.5","24.1","80","30.34","346","0.4","3.5","0.01","0.00"
"22:49:57","29.5","24.1","80","30.34","327","0.6","3.5","0.01","0.00"
"22:54:58","29.5","24.1","80","30.34","328","0.4","2.3","0.01","0.00"
"22:59:59","29.5","24.1","80","30.34","328","0.2","2.3","0.01","0.00"
"23:04:58","29.5","24.1","80","30.33","329","0.9","3.5","0.01","0.00"
"23:09:56","29.5","24.1","80","30.33","329","1.5","4","0.01","0.00"
"23:14:57","29.5","24.1","80","30.33","318","0.5","2.3","0.01","0.00"
"23:19:56","29.5","24.1","80","30.33","319","0.4","3","0.01","0.00"
"23:24:57","29.5","24.1","80","30.33","321","0.5","4","0.01","0.00"
"23:29:58","29.4","24","80","30.33","344","0.3","3.5","0.01","0.00"
"23:34:58","29.4","24.1","80.1","30.32","339","0.7","3.5","0.01","0.00"
"23:39:59","29.4","24.1","80.2","30.32","332","0.8","3.5","0.01","0.00"
"23:44:56","29.4","24.3","80.9","30.32","329","0.3","2","0.01","0.00"
"23:49:56","29.4","24.3","81","30.32","329","0.2","3","0.01","0.00"
"23:54:56","29.4","24.3","81","30.32","331","0.4","3.5","0.01","0.00"
"23:59:59","29.4","24.3","81","30.32","331","0.3","2.3","0.01","0.00"
